Flag for U.S.A. Weather past 2 weeks in Sioux Falls, South Dakota, U.S.A.

Now
68 °F

Sunny.


Feels Like: 68 °F
Forecast: 45 / 67 °F
Wind: 8 mph from Northeast

Location: Foss Field

Current Time: Oct 25, 2014 at 5:07:38 PM

Latest Report: Oct 25, 2014 at 3:56 PM


Visibility: 10 mi

Pressure: 30.09 "Hg

Humidity: 32%

Dew point: 37 °F

Location of Sioux FallsLocation

Historic Weather in Sioux Falls — Graph

°F

Sioux Falls temperature yesterday

Maximum temperature yesterday: 75 °F (at 2:56 PM)
Minimum temperature yesterday: 49 °F (at 7:56 AM)
Average temperature yesterday: 60 °F

Past Weeks' High & Low Weather Summary

 TemperatureHumidityPressure
High75 °F (Oct 24, 2:56 PM)100% (Oct 23, 1:56 AM)30.29 "Hg (Oct 23, 1:56 AM)
Low27 °F (Oct 11, 5:56 AM)25% (Oct 25, 2:56 PM)29.62 "Hg (Oct 12, 2:56 PM)
Average53 °F65%29.98 "Hg
* Reported Oct 10 2:56 PM — Oct 25 2:56 PM, Sioux Falls, Weather by CustomWeather, © 2014

Note: Actual official high and low records may vary slightly from our data, if they occured in-between our weather recording intervals... More about our weather records

Advertising

Sioux Falls weather history for previous 24 hours

 ConditionsComfort  
Time TempWeatherWind HumidityBarometerVisibility
2:56 PM
Oct 25
68 °FSunny.No wind25%30.11 "Hg10 mi
1:56 PM66 °FSunny.6 mph32%30.12 "Hg10 mi
12:56 PM65 °FSunny.7 mph34%30.14 "Hg10 mi
11:56 AM63 °FPassing clouds.9 mph37%30.15 "Hg10 mi
10:56 AM61 °FPassing clouds.6 mph44%30.15 "Hg10 mi
9:56 AM56 °FPassing clouds.No wind65%30.15 "Hg10 mi
8:56 AM47 °FPassing clouds.3 mph83%30.14 "Hg10 mi
7:56 AM42 °FPassing clouds.No wind85%30.12 "Hg10 mi
6:56 AM47 °FClear.3 mph74%30.11 "Hg10 mi
5:56 AM47 °FClear.5 mph74%30.08 "Hg10 mi
4:56 AM45 °FPassing clouds.No wind86%30.07 "Hg10 mi
3:56 AM46 °FClear.3 mph83%30.06 "Hg10 mi
2:56 AM50 °FClear.No wind71%30.05 "Hg10 mi
1:56 AM51 °FClear.3 mph74%30.03 "Hg10 mi
12:56 AM52 °FClear.No wind77%30.01 "Hg10 mi
11:56 PM
Oct 24
54 °FClear.No wind62%30.01 "Hg10 mi
10:56 PM53 °FClear.3 mph66%30.00 "Hg10 mi
9:56 PM54 °FClear.3 mph67%29.97 "Hg10 mi
8:56 PM58 °FClear.6 mph58%29.97 "Hg10 mi
7:56 PM57 °FClear.3 mph60%29.95 "Hg10 mi
6:56 PM62 °FScattered clouds.6 mph48%29.93 "Hg10 mi
5:56 PM72 °FPartly sunny.6 mph33%29.90 "Hg10 mi
Weather by CustomWeather, © 2014

See weather overviewHow to use our weather pages